Lid_Strength_Index
4 4 3 2 2 1 2 1 1 1 1 1 1 1 1 1 0 -0 -0 -0 -1 -1 -0 -0 -0 -0 0 0 0 1 1 1 1 1 2 1 1 1 0 1 1 0 -1
6 4 3 2 2 2 2 2 2 2 1 1 1 1 1 1 1 -0 -0 -1 -0 -1 -0 -1 -0 -0 0 0 0 1 1 1 1 2 3 5 3 4 1 2 1 1 -0
6 5 3 3 2 2 2 2 2 2 1 1 1 1 1 2 1 1 0 0 -0 -0 -1 -1 -0 -0 -0 1 0 1 1 2 1 1 2 5 6 4 2 2 2 1 1
5 5 4 3 3 2 1 2 2 2 1 0 1 1 2 2 3 2 2 1 -1 -1 -1 -1 -0 -0 -0 0 0 1 1 3 4 3 4 3 2 5 5 4 4 3 3
6 5 4 3 2 2 2 2 2 1 1 1 1 2 2 2 2 1 1 0 0 -1 -0 -1 -0 -0 0 -0 0 1 3 2 5 5 6 5 5 6 6 7 5 4 1
5 5 4 3 3 2 2 1 2 1 1 1 1 2 2 1 2 1 2 1 1 0 -0 -1 -0 0 -0 0 0 2 4 4 4 5 5 7 6 5 5 6 6 6 2
5 5 5 4 4 3 2 2 2 2 1 1 1 1 1 1 2 1 1 1 1 1 -0 -1 -0 0 -0 0 1 2 3 5 4 4 5 6 6 6 5 5 6 6 4
4 5 5 5 4 3 3 2 2 2 1 1 1 1 1 1 1 1 2 1 1 1 -0 0 -0 -0 -0 -0 1 2 4 4 6 5 5 5 5 4 5 4 4 5 5
5 4 5 5 4 3 3 2 2 2 2 1 1 1 1 1 1 1 1 2 0 0 -0 0 0 -0 -0 -0 1 2 3 5 6 6 6 5 4 4 4 3 4 5 6
5 4 4 4 4 3 3 2 2 2 2 1 1 1 1 1 1 0 1 2 1 1 -0 0 0 0 0 0 1 2 3 5 6 7 6 5 5 4 3 3 3 4 4
6 5 4 3 3 3 3 2 2 2 2 1 1 1 1 1 0 1 1 0 1 1 0 0 1 0 0 0 1 2 3 5 5 6 5 5 5 5 4 2 2 3 3
5 5 4 4 3 3 2 2 2 2 2 1 1 1 1 1 1 1 1 0 2 0 0 0 0 0 0 0 1 2 3 5 5 6 5 6 5 5 4 3 3 3 3
5 5 4 4 4 3 3 2 2 2 1 1 1 1 1 1 1 1 1 1 1 1 0 0 1 1 0 0 1 1 2 4 5 6 5 6 5 5 5 4 3 3 3
6 5 5 4 4 3 3 2 3 2 2 1 2 2 1 1 1 1 1 1 1 1 1 1 0 0 1 0 0 1 2 4 5 5 4 6 5 6 5 4 4 3 4
6 5 5 4 4 3 3 2 2 2 2 3 3 2 1 1 1 1 1 1 1 1 1 1 1 0 0 1 1 1 2 4 5 5 5 6 6 6 5 4 4 3 5
6 5 5 4 4 3 3 2 2 2 1 2 2 1 1 1 1 1 1 1 1 1 1 1 1 1 1 2 3 1 2 5 5 7 6 6 5 5 4 4 3 3 4
5 5 5 4 3 3 3 3 2 1 2 2 2 1 1 2 1 1 1 1 1 1 1 1 1 1 1 5 5 4 4 5 6 7 6 7 6 6 5 4 4 3 3
5 5 4 4 3 2 2 2 2 2 2 2 2 2 2 2 1 1 1 1 1 1 1 1 1 1 1 6 7 5 5 6 6 6 6 7 6 6 7 6 6 5 4
4 4 3 3 2 2 2 2 3 3 3 3 2 2 2 2 2 2 1 2 2 3 2 1 1 1 1 8 8 6 5 6 7 6 6 7 6 7 7 7 8 7 4
4 3 3 2 3 3 2 2 3 3 3 3 2 2 1 2 2 2 2 1 2 2 2 2 1 3 1 9 10 7 6 7 7 7 7 7 7 8 8 7 7 8 5
3 3 3 3 3 2 2 3 3 3 3 2 2 1 1 2 1 1 1 3 2 2 2 2 3 1 2 5 10 9 5 6 8 7 7 7 9 9 10 8 7 7 7
4 3 3 3 2 2 2 3 3 3 2 2 2 2 2 2 2 1 3 4 2 3 2 2 2 1 2 8 11 9 8 8 7 7 7 7 10 10 10 8 9 9 8
3 3 3 3 3 2 3 3 2 2 2 2 2 2 2 2 2 3 2 2 2 2 3 3 3 2 2 5 10 11 10 10 6 7 8 10 12 11 10 9 9 8 7
4 3 3 3 3 3 3 3 2 2 2 2 2 2 2 2 4 5 4 4 3 3 3 3 3 3 3 4 7 7 8 8 6 8 8 9 9 8 8 8 8 5 6
3 3 3 3 3 4 4 3 3 2 2 2 2 2 2 2 4 9 10 7 10 11 5 5 5 4 3 6 12 9 6 6 6 7 8 8 8 7 7 7 7 6 6
3 3 3 3 3 4 3 3 3 3 2 2 2 4 3 2 2 5 7 11 13 15 14 13 10 7 11 15 16 16 14 12 11 7 7 7 7 7 7 7 7 7 6